Volver al catálogo

STARLINK-35083

ActivoComunicacionesSSO
NORAD 65390·PAYLOAD·🇺🇸 United States

Lanzado Aug 30, 2025 desde Vandenberg Space Force Base

Loading…

Próximos Pases (próximas 24 horas)

TLE

ActualizadoSource: CelesTrak SupGP

Época: Sep 14, 2026, 22:59 UTC

1 65390C 25191M   26257.95812500  .00070415  00000+0  21864-2 0  2579
2 65390  97.2845 124.0609 0001656  95.9644 105.3501 15.33394722    12

Sigue STARLINK-35083 en tiempo real con AllMySat

Download on the App Store